Regional Weather Roundup
Issued by NWS

Home | Current Version | Previous Version | Text Only | Print | Product List | Glossary Off
Versions: 1 2 3 4 5 6 7 8 9 10 11 12 13 14 15 16 17 18 19 20 21 22 23 24 25 26 27 28 29 30 31 32 33 34 35 36 37 38 39 40 41 42 43 44 45 46 47 48 49 50

000
ASUS43 KDTX 310501
RWRMI
MICHIGAN HOURLY REGIONAL WEATHER ROUNDUP
NATIONAL WEATHER SERVICE DETROIT/PONTIAC MI
100 AM EDT FRI JUL 31 2015

NOTE: "FAIR" INDICATES FEW OR NO CLOUDS BELOW 12,000 FEET WITH NO
SIGNIFICANT WEATHER AND/OR OBSTRUCTION TO VISIBILITY.

MIZ047>049-052>055-059>063-066>070-074>076-081>083-310600-
SOUTHEAST LOWER MICHIGAN

CITY           SKY/WX    TMP DP  RH WIND       PRES   REMARKS
ADRIAN         CLEAR     66  59  78 SW3       30.00S
ALMA           CLEAR     66  60  80 SW5       29.95S
ANN ARBOR      PTCLDY    63  59  87 SW5       29.98S
BAD AXE        CLEAR     61  57  88 CALM      29.93S
CARO           PTCLDY    63  59  88 CALM      29.92S
DETROIT CITY   CLEAR     74  57  55 W7        29.96S
DETROIT        CLEAR     70  58  65 SW8       29.97S
FLINT          CLEAR     70  58  65 SW7       29.95S
GROSSE ILE     CLEAR     72  59  64 SW5       29.96S
HILLSDALE      CLEAR     69  58  66 SW3       30.01S
HOWELL         PTCLDY    67  56  67 SW3       29.97S

CITY           SKY/WX    TMP DP  RH WIND       PRES   REMARKS
JACKSON        CLEAR     66  58  75 SW8       29.99S
LAMBERTVILLE   CLEAR     73  57  59 SW5       30.00R
LANSING        PTCLDY    70  58  65 W7        29.97S
LAPEER         FAIR      65  59  80 SW3       29.95S
MASON          MOCLDY    66  57  72 SW3       29.98S
MONROE         CLEAR     67  59  76 W3        29.98R
MT. CLEMENS    CLEAR     72  58  62 SW7       29.93S
PONTIAC        CLEAR     69  58  67 W6        29.96S
PORT HOPE        N/A     64  61  90 S3        29.90S
PORT HURON     CLEAR     61  59  94 CALM      29.94S
TRI CITIES     CLEAR     69  59  70 SW6       29.93S
MIDLAND        FAIR      69  58  66 W5        29.92S
TROY           CLEAR     73  57  58 SW5       29.98S
SAGINAW HB     CLEAR     68  59  73 SW6       29.93S
$$
MIZ043>046-050>051-056>058-064>065-071>073-077>080-310600-
SOUTHWEST LOWER MICHIGAN

CITY           SKY/WX    TMP DP  RH WIND       PRES   REMARKS
BATTLE CREEK   CLEAR     69  59  70 SW8       30.00S
BENTON HARBOR  CLEAR     72  63  73 W7        29.99S
BIG RAPIDS     CLEAR     67  57  69 W6        29.95S
COLDWATER      PTCLDY    65  58  76 SW3       30.01R
FREMONT        FAIR      64  61  91 CALM      29.96S
HOLLAND        CLEAR     75  57  53 W6        29.98S
GRAND RAPIDS   CLEAR     69  60  73 W8        29.97S
IONIA          FAIR      67  59  74 W7        29.96S
KALAMAZOO      CLEAR     68  58  70 SW7       30.00S
LUDINGTON      MOCLDY    66  61  85 CALM      29.95S
MARSHALL       CLEAR     68  58  71 SW5       29.99S
MOUNT PLEASANT CLEAR     70  59  66 W6        29.94R
MUSKEGON         N/A     71  56  58 W5        29.97R
SOUTH HAVEN    CLEAR     74  61  65 W5        29.99S
$$
MIZ016>042-310600-
NORTHERN LOWER MICHIGAN

CITY           SKY/WX    TMP DP  RH WIND       PRES   REMARKS
ALPENA         CLEAR     56  53  90 CALM      29.89F
BEAVER ISLAND  CLEAR     67  61  80 W8        29.86F
BELLAIRE       CLEAR     58  56  94 CALM      29.89F
CADILLAC       CLEAR     61  59  94 SW5       29.95S
CHARLEVOIX     CLEAR     66  60  81 SW6       29.91S
FRANKFORT      CLEAR     62  61  95 CALM      29.92S
GAYLORD        CLEAR     61  55  81 SW3       29.91F
GRAYLING       CLEAR     63  54  71 SW3       29.93S
HARBOR SPRINGS CLEAR     62  55  78 CALM      29.87F
HOUGHTON LAKE  PTCLDY    69  57  65 W9        29.94S
MANISTEE       CLEAR     61  55  82 CALM      29.93F
OSCODA         CLEAR     62  58  88 SW3       29.90S
PELLSTON       CLEAR     54  52  93 CALM      29.87F
ROGERS CITY    CLEAR     63  53  71 S7        29.88F
TRAVERSE CITY  CLEAR     70  58  65 SW5       29.89S
$$
MIZ007>008-015-310600-
EASTERN UPPER MICHIGAN

CITY           SKY/WX    TMP DP  RH WIND       PRES   REMARKS
KINROSS        CLOUDY    63  54  72 CALM      29.84S
MACKINAC ISLAN PTCLDY    66  56  71 S8        29.85F
MUNISING         N/A     68  55  63 SW8       29.83F
$$
MIZ004>006-011>014-085-310600-
CENTRAL UPPER MICHIGAN

CITY           SKY/WX    TMP DP  RH WIND       PRES   REMARKS
ESCANABA       CLEAR     64  57  77 W9        29.86F
MENOMINEE      CLEAR     64  55  72 W5        29.90F
SAWYER-GWINN   CLEAR     65  56  72 W6        29.87F
$$
MIZ001>003-009>011-084-310600-
WESTERN UPPER MICHIGAN

CITY           SKY/WX    TMP DP  RH WIND       PRES   REMARKS
IRON MOUNTAIN  CLEAR     65  58  78 W5        29.89F
HOUGHTON       PTCLDY    58  56  93 W5        29.84F
COPPER HARBOR    N/A     64  53  67 W7        29.80F
IRONWOOD       CLEAR     63  55  77 W8        29.89S
$$

ABBREVIATIONS USED IN REMARKS
   TC - TEMPERATURE IN CELSIUS
  WCI - WIND CHILL INDEX
   HX - HEAT INDEX
  VSB - VISIBILITY




USA.gov is the U.S. government's official web portal to all federal, state and local government web resources and services.